Location: downtown San Diego
(32.7310°N, 117.1990°W)
Time: 20:06:28
(UTC-08:00)

RESURS DK-1 - Pass Details

Date: 19 May 2017
Orbit: 559 x 561 km, 69.9° (Epoch: 24 November)

Event Time Altitude Azimuth Distance (km) Brightness Sun altitude
Rises 20:24:24 0° 178° (S) 2,726 5.5 -8.4°
Reaches altitude 10° 20:26:47 10° 167° (SSE) 1,835 4.6 -8.8°
Maximum altitude 20:30:23 30° 106° (ESE) 1,015 3.1 -9.5°
Drops below altitude 10° 20:33:59 10° 45° (NE) 1,846 4.9 -10.1°
Sets 20:36:23 0° 34° (NE) 2,746 5.9 -10.6°
